User: anonymous   Login
Location: Palomar Mountain Lodge
(33.3110°N, 116.8495°W)
Time: 10:57:34
(UTC-08:00)
Language:

deb Kosmos-1763 - Orbit

View from above orbital plane
View from above orbital plane
View from above satellite
View from above satellite

Ground track
Ground track

The orbit data is extracted from the following two-line orbital elements,

1 16865U 86052C   19053.89271043 +.00004430 +00000-0 +17134-3 0  9999
2 16865 074.0035 315.9583 0010661 157.0808 203.0870 15.26506453748640
Epoch (UTC): 22 February 2019 21:25:30
Eccentricity: 0.0010661
inclination: 74.0035°
perigee height: 479 km
apogee height: 493 km
right ascension of ascending node: 315.9583°
argument of perigee: 157.0808°
revolutions per day: 15.26506453
mean anomaly at epoch: 203.0870°
orbit number at epoch: 74864

The dashed part of the orbit path shows where the satellite is in the earth's shadow,  

DLR